Weather in Daytona Beach

United States     29°12′38″N   81°01′22″W
temp.,
°C
wind,
m/s
gust,
m/s
humid.,
%
clouds,
%
prec.,
mm/h
press.,
hPa
HPBL,
m
23 may, mon
mon2323:00+26se6990100 0.1 1022372
02:00+25sse59907 0.3 1021413
05:00+25sse589288 0.0 1020447
08:00+26sse6887100 0.0 1020574
11:00+27se777271 0.1 1020759
14:00+27se887294 0.1 1019617
17:00+27se89725 0.0 1017478
20:00+26se9118030 0.0 1018423
24 may, tue
tue2423:00+25sse711835 0.0 1018491
02:00+25s59854 0.0 1018502
05:00+24sse47885 0.0 1017401
08:00+25sse47855 0.0 1018486
11:00+27se567073 0.0 1019763
14:00+27ese777246 0.0 1018669
17:00+27se886997 0.0 1017625
20:00+26se71074100 0.0 1017493
25 may, wed
wed2523:00+25se7108291 0.0 1019606
02:00+25se6981100 0.0 1018629
05:00+25sse588177 0.0 1018596
08:00+25se5779100 0.0 1019801
11:00+27se686856 0.0 1020930
14:00+27ese8967100 0.0 1019817
17:00+27se7969100 0.0 1018803
20:00+26se7980100 0.0 1019691
26 may, thu
thu2623:00+26se81080100 0.1 1019716
02:00+25se6980100 0.1 1019792
05:00+25se687999 0.0 1018738
08:00+25se6876100 0.0 1020808
11:00+27se796881 0.0 10201055
14:00+27se8967100 0.0 1019843
17:00+26se7972100 0.0 1018631
20:00+26se7979100 0.0 1017574
27 may, fri
fri2723:00+26se7108170 0.0 1018635
02:00+25sse59857 0.4 1017503
05:00+24s478886 0.4 1016386
08:00+24s5886100 0.4 1017433
11:00+28sse466899 0.0 1016727
14:00+29ese666392 0.3 10141069
17:00+26se10127825 0.1 1011406
20:00+26sw467999 7.0 1012144